FW6046 Weather Reports


time (UTC)temp
C
wind
direction
speed
KPH
gust
KPH
rain 1hr
cm
rain 24hr
cm
rain mn
cm
humidity
%
barometer
mb
20260507015603 21 266 8.0 14.5 0.00 0.00 0.00 54 1016.3
20260507015104 21 273 8.0 14.5 0.00 0.00 0.00 54 1016.3
20260507014104 21 307 9.7 14.5 0.00 0.00 0.00 53 1016.2
20260507013604 21 327 8.0 16.1 0.00 0.00 0.00 53 1016.2
20260507013104 22 319 8.0 16.1 0.00 0.00 0.00 52 1016.2
20260507012604 22 310 8.0 14.5 0.00 0.00 0.00 52 1016.1
20260507012103 22 304 8.0 14.5 0.00 0.00 0.00 52 1016.1
20260507010604 22 343 8.0 16.1 0.00 0.00 0.00 51 1016.1
20260507010104 23 292 8.0 19.3 0.00 0.00 0.00 50 1016.1
20260507005603 23 299 8.0 19.3 0.00 0.00 0.00 50 1016.1
20260507005103 23 318 8.0 19.3 0.00 0.00 0.00 50 1016.1
20260507004604 23 314 9.7 19.3 0.00 0.00 0.00 49 1016.1
20260507004103 23 337 9.7 14.5 0.00 0.00 0.00 49 1016.1
20260507003604 23 309 9.7 20.9 0.00 0.00 0.00 50 1016.1
20260507003104 23 320 9.7 20.9 0.00 0.00 0.00 50 1016.1
20260507002604 23 305 8.0 19.3 0.00 0.00 0.00 48 1015.9
20260507002103 23 279 8.0 16.1 0.00 0.00 0.00 49 1015.9
20260507001604 23 281 9.7 16.1 0.00 0.00 0.00 48 1015.9
20260507000604 23 286 8.0 20.9 0.00 0.00 0.00 48 1015.9
20260507000104 24 300 8.0 20.9 0.00 0.00 0.00 47 1015.9
20260506235604 24 359 8.0 12.9 0.00 0.00 0.00 47 1015.9
20260506235103 24 17 9.7 16.1 0.00 0.00 0.00 48 1015.9
20260506234603 23 304 9.7 20.9 0.00 0.00 0.00 48 1015.9
20260506234104 24 284 9.7 20.9 0.00 0.00 0.00 47 1015.9
20260506233604 24 286 9.7 16.1 0.00 0.00 0.00 47 1015.9
20260506233104 24 294 9.7 16.1 0.00 0.00 0.00 47 1015.9
20260506232604 24 314 8.0 16.1 0.00 0.00 0.00 46 1016.0
20260506232103 25 315 8.0 19.3 0.00 0.00 0.00 46 1016.0
20260506231603 24 334 9.7 19.3 0.00 0.00 0.00 47 1016.0
20260506231104 24 301 9.7 16.1 0.00 0.00 0.00 47 1016.1
20260506230603 24 2 9.7 16.1 0.00 0.00 0.00 46 1016.1
20260506230104 24 289 9.7 16.1 0.00 0.00 0.00 47 1016.1
20260506225604 24 344 9.7 16.1 0.00 0.00 0.00 48 1016.1
20260506225104 24 326 9.7 16.1 0.00 0.00 0.00 47 1016.1
20260506224604 24 307 9.7 25.7 0.00 0.00 0.00 47 1016.1
20260506224103 25 290 9.7 25.7 0.00 0.00 0.00 47 1016.3
20260506223603 25 311 9.7 25.7 0.00 0.00 0.00 46 1016.3
20260506222604 25 322 8.0 20.9 0.00 0.00 0.00 46 1016.4
20260506222104 25 306 8.0 20.9 0.00 0.00 0.00 46 1016.4
20260506221604 25 258 8.0 19.3 0.00 0.00 0.00 46 1016.4
20260506221104 25 302 8.0 19.3 0.00 0.00 0.00 47 1016.6
20260506220604 25 306 8.0 19.3 0.00 0.00 0.00 46 1016.6
20260506220104 25 333 8.0 16.1 0.00 0.00 0.00 45 1016.6
20260506215604 25 303 9.7 16.1 0.00 0.00 0.00 44 1016.8
20260506215105 25 279 11.3 16.1 0.00 0.00 0.00 45 1016.8
20260506214604 25 299 8.0 29.0 0.00 0.00 0.00 45 1016.8
20260506214105 25 277 8.0 29.0 0.00 0.00 0.00 44 1016.9
20260506213603 26 350 8.0 16.1 0.00 0.00 0.00 43 1016.9
20260506213104 26 354 8.0 14.5 0.00 0.00 0.00 41 1016.9
20260506212604 26 285 4.8 14.5 0.00 0.00 0.00 42 1017.0
20260506212104 26 51 4.8 14.5 0.00 0.00 0.00 41 1017.0
20260506211603 26 284 4.8 14.5 0.00 0.00 0.00 42 1017.0
20260506211104 26 303 3.2 14.5 0.00 0.00 0.00 40 1017.1
20260506210603 26 77 4.8 9.7 0.00 0.00 0.00 40 1017.1
20260506210104 26 78 4.8 9.7 0.00 0.00 0.00 41 1017.1
20260506205603 25 145 4.8 11.3 0.00 0.00 0.00 41 1017.2
20260506204604 25 344 6.4 14.5 0.00 0.00 0.00 42 1017.2
20260506204104 25 0 8.0 14.5 0.00 0.00 0.00 41 1017.4
20260506203603 26 304 4.8 12.9 0.00 0.00 0.00 41 1017.4
20260506202604 26 336 3.2 9.7 0.00 0.00 0.00 39 1017.6
20260506202104 26 102 3.2 9.7 0.00 0.00 0.00 40 1017.6
20260506201603 25 174 4.8 9.7 0.00 0.00 0.00 40 1017.6
20260506201103 25 106 4.8 9.7 0.00 0.00 0.00 41 1017.7
20260506200103 25 302 3.2 14.5 0.00 0.00 0.00 40 1017.7
20260506195603 25 183 4.8 9.7 0.00 0.00 0.00 42 1017.9
20260506195104 25 169 4.8 12.9 0.00 0.00 0.00 41 1017.9
20260506194604 25 87 4.8 12.9 0.00 0.00 0.00 41 1017.9
20260506194104 25 206 3.2 11.3 0.00 0.00 0.00 42 1018.0
20260506193604 24 132 4.8 12.9 0.00 0.00 0.00 43 1018.0
20260506193104 23 298 4.8 14.5 0.00 0.00 0.00 42 1018.0
20260506192604 23 191 4.8 14.5 0.00 0.00 0.00 43 1018.2
20260506191104 23 139 3.2 9.7 0.00 0.00 0.00 44 1018.3
20260506190604 23 62 4.8 9.7 0.00 0.00 0.00 44 1018.3
20260506190104 22 160 4.8 9.7 0.00 0.00 0.00 46 1018.3
20260506185604 22 190 4.8 11.3 0.00 0.00 0.00 45 1018.5
20260506185104 22 213 4.8 11.3 0.00 0.00 0.00 46 1018.5
20260506184604 22 248 4.8 14.5 0.00 0.00 0.00 46 1018.5
20260506184103 21 114 4.8 14.5 0.00 0.00 0.00 47 1018.6
20260506183103 22 166 4.8 11.3 0.00 0.00 0.00 46 1018.6
20260506182604 21 198 4.8 11.3 0.00 0.00 0.00 47 1018.8
20260506181104 21 164 3.2 9.7 0.00 0.00 0.00 49 1018.9
20260506180603 21 178 6.4 9.7 0.00 0.00 0.00 49 1018.9
20260506180103 20 216 8.0 9.7 0.00 0.00 0.00 51 1018.9
20260506175603 20 222 4.8 14.5 0.00 0.00 0.00 51 1018.9
20260506175103 20 86 4.8 14.5 0.00 0.00 0.00 51 1018.9
20260506174103 20 74 3.2 11.3 0.00 0.00 0.00 51 1019.0
20260506173104 19 96 3.2 11.3 0.00 0.00 0.00 54 1019.0
20260506172604 19 46 3.2 9.7 0.00 0.00 0.00 54 1019.0
20260506172104 18 75 3.2 9.7 0.00 0.00 0.00 55 1019.0
20260506171104 18 278 3.2 11.3 0.00 0.00 0.00 54 1019.0
20260506170604 18 185 3.2 11.3 0.00 0.00 0.00 53 1019.0
20260506170104 18 200 3.2 8.0 0.00 0.00 0.00 55 1019.0
20260506165604 18 191 3.2 8.0 0.00 0.00 0.00 56 1019.1
20260506165104 18 134 3.2 8.0 0.00 0.00 0.00 57 1019.1
20260506164604 18 81 3.2 8.0 0.00 0.00 0.00 58 1019.1
20260506164104 18 169 3.2 8.0 0.00 0.00 0.00 59 1019.1
20260506163604 17 75 3.2 9.7 0.00 0.00 0.00 61 1019.1
20260506163104 17 81 3.2 9.7 0.00 0.00 0.00 59 1019.1
20260506162103 17 74 3.2 9.7 0.00 0.00 0.00 63 1019.1
20260506161604 17 256 3.2 8.0 0.00 0.00 0.00 63 1019.1
20260506161103 17 300 3.2 8.0 0.00 0.00 0.00 64 1019.2
20260506160603 17 82 3.2 8.0 0.00 0.00 0.00 65 1019.2
20260506160103 16 175 3.2 8.0 0.00 0.00 0.00 66 1019.2
20260506155603 16 200 3.2 4.8 0.00 0.00 0.00 67 1019.3
20260506155103 16 0 3.2 4.8 0.00 0.00 0.00 66 1019.3
20260506154104 16 99 3.2 8.0 0.00 0.00 0.00 68 1019.3
20260506153604 16 80 3.2 8.0 0.00 0.00 0.00 69 1019.3
20260506153103 15 93 3.2 8.0 0.00 0.00 0.00 70 1019.3
20260506152603 15 76 3.2 4.8 0.00 0.00 0.00 71 1019.3
20260506151104 14 101 3.2 8.0 0.00 0.00 0.00 74 1019.3
20260506150604 14 296 3.2 8.0 0.00 0.00 0.00 74 1019.3
20260506150104 13 296 3.2 8.0 0.00 0.00 0.00 77 1019.3
20260506145104 13 295 1.6 4.8 0.00 0.00 0.00 78 1019.4
20260506144604 13 296 3.2 4.8 0.00 0.00 0.00 80 1019.4
20260506144103 12 296 3.2 8.0 0.00 0.00 0.00 80 1019.3
20260506143603 12 296 3.2 8.0 0.00 0.00 0.00 81 1019.3
20260506143103 12 296 3.2 4.8 0.00 0.00 0.00 81 1019.3
20260506142604 12 296 3.2 4.8 0.00 0.00 0.00 82 1019.2
20260506142103 12 296 1.6 4.8 0.00 0.00 0.00 83 1019.2
20260506141603 11 296 1.6 4.8 0.00 0.00 0.00 86 1019.2
20260506141104 11 296 0.0 3.2 0.00 0.00 0.00 88 1019.1
20260506140604 11 296 0.0 3.2 0.00 0.00 0.00 89 1019.1
20260506140104 10 296 0.0 3.2 0.00 0.00 0.00 90 1019.1
20260506135603 10 296 0.0 3.2 0.00 0.00 0.00 91 1019.0
20260506134604 9 296 0.0 3.2 0.00 0.00 0.00 93 1019.0
20260506134103 8 296 0.0 3.2 0.00 0.00 0.00 93 1018.9
20260506133603 8 296 0.0 0.0 0.00 0.00 0.00 93 1018.9
20260506133104 8 296 0.0 0.0 0.00 0.00 0.00 94 1018.9
20260506132604 8 296 0.0 0.0 0.00 0.00 0.00 93 1018.9
20260506131603 8 296 0.0 3.2 0.00 0.00 0.00 93 1018.9
20260506131104 8 296 0.0 3.2 0.00 0.00 0.00 92 1018.6
20260506130603 8 296 0.0 3.2 0.00 0.00 0.00 92 1018.6
20260506125103 8 296 0.0 0.0 0.00 0.00 0.00 92 1018.5
20260506124604 8 296 0.0 0.0 0.00 0.00 0.00 91 1018.5
20260506124104 8 296 0.0 0.0 0.00 0.00 0.00 91 1018.4
20260506123104 8 296 0.0 1.6 0.00 0.00 0.00 91 1018.4
20260506122603 8 296 0.0 3.2 0.00 0.00 0.00 91 1018.3
20260506122104 8 296 0.0 3.2 0.00 0.00 0.00 91 1018.3
20260506120604 8 296 0.0 0.0 0.00 0.00 0.00 91 1018.3
20260506120103 8 296 0.0 0.0 0.00 0.00 0.00 91 1018.3
20260506115604 8 296 0.0 0.0 0.00 0.00 0.00 91 1018.3
20260506115103 8 296 0.0 0.0 0.00 0.00 0.00 90 1018.3
20260506114604 8 296 0.0 0.0 0.00 0.00 0.00 90 1018.3
20260506113604 8 296 1.6 3.2 0.00 0.00 0.00 90 1018.2
20260506113103 8 296 1.6 3.2 0.00 0.00 0.00 90 1018.2
20260506112104 9 296 0.0 3.2 0.00 0.00 0.00 90 1018.1
20260506111603 9 296 0.0 0.0 0.00 0.00 0.00 89 1018.1
20260506111103 9 296 0.0 0.0 0.00 0.00 0.00 89 1018.2
20260506105603 9 296 1.6 3.2 0.00 0.00 0.00 89 1018.3
20260506105104 9 296 3.2 3.2 0.00 0.00 0.00 89 1018.3
20260506104604 9 296 1.6 3.2 0.00 0.00 0.00 89 1018.3
20260506104104 9 296 0.0 3.2 0.00 0.00 0.00 89 1018.2
20260506103104 9 296 0.0 3.2 0.00 0.00 0.00 89 1018.2
20260506102604 10 296 0.0 3.2 0.00 0.00 0.00 88 1018.2
20260506102104 10 296 0.0 3.2 0.00 0.00 0.00 88 1018.2
20260506101604 10 296 1.6 3.2 0.00 0.00 0.00 87 1018.2
20260506101104 10 296 1.6 3.2 0.00 0.00 0.00 88 1018.2
20260506100103 10 296 1.6 3.2 0.00 0.00 0.00 88 1018.2
20260506095604 10 296 3.2 3.2 0.00 0.00 0.00 88 1018.3
20260506095104 10 296 3.2 3.2 0.00 0.00 0.00 88 1018.3
20260506094603 10 296 3.2 3.2 0.00 0.00 0.00 88 1018.3
20260506094103 10 296 1.6 3.2 0.00 0.00 0.00 87 1018.3
20260506093603 10 296 3.2 3.2 0.00 0.00 0.00 86 1018.3
20260506093104 10 296 3.2 3.2 0.00 0.00 0.00 86 1018.3
20260506092604 10 296 3.2 3.2 0.00 0.00 0.00 86 1018.5
20260506091604 10 296 1.6 3.2 0.00 0.00 0.00 87 1018.5
20260506091103 10 296 0.0 3.2 0.00 0.00 0.00 86 1018.4
20260506090604 10 296 1.6 3.2 0.00 0.00 0.00 86 1018.4
20260506090103 10 296 1.6 3.2 0.00 0.00 0.00 86 1018.4
20260506085603 10 296 1.6 3.2 0.00 0.00 0.00 86 1018.5
20260506085104 10 296 0.0 3.2 0.00 0.00 0.00 86 1018.5
20260506084604 10 296 0.0 3.2 0.00 0.00 0.00 85 1018.5
20260506083604 10 296 1.6 3.2 0.00 0.00 0.00 85 1018.7
20260506083104 10 296 1.6 3.2 0.00 0.00 0.00 85 1018.7
20260506082604 10 296 1.6 3.2 0.00 0.00 0.00 85 1018.6
20260506082104 10 296 0.0 3.2 0.00 0.00 0.00 85 1018.6
20260506081604 10 296 0.0 3.2 0.00 0.00 0.00 85 1018.6
20260506081103 10 296 0.0 0.0 0.00 0.00 0.00 84 1018.6
20260506080603 10 296 0.0 0.0 0.00 0.00 0.00 84 1018.6
20260506073104 11 296 0.0 3.2 0.00 0.00 0.00 82 1018.6
20260506072603 11 296 0.0 3.2 0.00 0.00 0.00 82 1018.5
20260506072104 11 296 0.0 4.8 0.00 0.00 0.00 82 1018.5
20260506071603 11 296 0.0 4.8 0.00 0.00 0.00 82 1018.5
20260506071105 11 296 0.0 1.6 0.00 0.00 0.00 82 1018.3
20260506070604 11 296 1.6 3.2 0.00 0.00 0.00 81 1018.3
20260506070104 11 296 1.6 3.2 0.00 0.00 0.00 81 1018.3
20260506061604 12 296 1.6 4.8 0.00 0.00 0.00 80 1017.9
20260506061103 12 296 0.0 4.8 0.00 0.00 0.00 80 1017.9
20260506060604 12 296 1.6 3.2 0.00 0.00 0.00 79 1017.9
20260506060104 12 296 1.6 3.2 0.00 0.00 0.00 79 1017.9
20260506051104 13 296 1.6 3.2 0.00 0.00 0.00 76 1017.3
20260506050604 13 296 3.2 3.2 0.00 0.00 0.00 75 1017.3
20260506050103 13 296 3.2 3.2 0.00 0.00 0.00 75 1017.3
20260506045104 13 296 1.6 4.8 0.00 0.00 0.00 74 1017.1
20260506044104 13 296 1.6 3.2 0.00 0.00 0.00 73 1016.9
20260506043604 13 296 3.2 3.2 0.00 0.00 0.00 72 1016.9
20260506043104 13 296 3.2 4.8 0.00 0.00 0.00 72 1016.9
20260506042604 14 296 3.2 4.8 0.00 0.00 0.00 71 1016.7
20260506042104 14 283 3.2 4.8 0.00 0.00 0.00 71 1016.7
20260506041603 14 268 3.2 8.0 0.00 0.00 0.00 70 1016.7
20260506041104 14 268 1.6 8.0 0.00 0.00 0.00 70 1016.6
20260506040604 15 227 3.2 3.2 0.00 0.00 0.00 69 1016.6
20260506040104 15 227 3.2 3.2 0.00 0.00 0.00 69 1016.6
20260506035603 15 227 3.2 8.0 0.00 0.00 0.00 68 1016.4
20260506035104 15 227 3.2 8.0 0.00 0.00 0.00 68 1016.4
20260506034604 15 261 3.2 8.0 0.00 0.00 0.00 67 1016.4
20260506034104 15 271 3.2 4.8 0.00 0.00 0.00 67 1016.3
20260506033604 15 271 3.2 4.8 0.00 0.00 0.00 67 1016.3
20260506033104 15 271 3.2 3.2 0.00 0.00 0.00 67 1016.3
20260506032604 15 271 3.2 8.0 0.00 0.00 0.00 67 1016.0
20260506032104 15 271 3.2 8.0 0.00 0.00 0.00 67 1016.0
20260506031603 15 271 3.2 8.0 0.00 0.00 0.00 67 1016.0
20260506031104 15 271 3.2 8.0 0.00 0.00 0.00 66 1015.7
20260506030603 15 271 3.2 4.8 0.00 0.00 0.00 66 1015.7
20260506030103 16 271 3.2 4.8 0.00 0.00 0.00 65 1015.7
20260506025603 16 271 3.2 8.0 0.00 0.00 0.00 65 1015.5
20260506025104 16 271 3.2 8.0 0.00 0.00 0.00 64 1015.5
20260506024104 16 213 3.2 8.0 0.00 0.00 0.00 63 1015.4
20260506023603 16 298 3.2 8.0 0.00 0.00 0.00 63 1015.4
20260506023104 16 300 3.2 8.0 0.00 0.00 0.00 63 1015.4
20260506022603 16 296 3.2 9.7 0.00 0.00 0.00 62 1015.2
20260506022104 16 296 3.2 9.7 0.00 0.00 0.00 61 1015.2
20260506021104 17 311 4.8 11.3 0.00 0.00 0.00 60 1015.1
20260506020603 17 306 4.8 11.3 0.00 0.00 0.00 59 1015.1
20260506020103 17 334 4.8 11.3 0.00 0.00 0.00 58 1015.1